Location: Triton
(47.6048°N, 122.9899°W)
Time: 14:59:59
(UTC+00:00)

ARIANE 6 FM1 Upper Stage - Pass Details

Date: 16 February 2026
Orbit: 523 x 607 km, 62.0° (Epoch: 8 March)

Event Time Altitude Azimuth Distance (km) Brightness Sun altitude
Rises 03:14:41 0° 318° (NW) 2,661 6.8 -17.3°
Reaches altitude 10° 03:16:53 10° 321° (NW) 1,768 5.7 -17.6°
Maximum altitude 03:20:50 70° 45° (NE) 562 2.4 -18.3°
Enters shadow 03:21:54 45° 114° (ESE) 723 2.8 -18.5°
